Regional Weather Roundup
Issued by NWS

Home | Current Version | Previous Version | Text Only | Print | Product List | Glossary On
Versions: 1 2 3 4 5 6 7 8 9 10 11 12 13 14 15 16 17 18 19 20 21 22 23 24 25 26 27 28 29 30 31 32 33 34 35 36 37 38 39 40 41 42 43 44 45 46 47 48 49 50
000
ASUS43 KMPX 271010
RWRMN
WEATHER ROUNDUP FOR MINNESOTA
NATIONAL WEATHER SERVICE TWIN CITIES/CHANHASSEN MN
400 AM CST TUE JAN 27 2015


NOTE: "FAIR" INDICATES FEW OR NO CLOUDS BELOW 12,000 FEET WITH NO
SIGNIFICANT WEATHER AND/OR OBSTRUCTIONS TO VISIBILITY. N/A MEANS
CURRENT SKY AND/OR WEATHER CONDITIONS ARE NOT AVAILABLE.

MNZ060>063-068>070-271100-
   Twin Cities Metro

CITY           SKY/WX    TMP DP  RH WIND       PRES   REMARKS
TWIN CITIES    CLOUDY    33  25  72 NW6       30.07R WCI  28
ST PAUL        CLOUDY    34  26  72 NE9       30.08R WCI  27
CRYSTAL        CLOUDY    34  25  69 N7        30.06R WCI  28
BLAINE         CLOUDY    36  28  75 NW6       30.06S
LAKEVILLE      CLOUDY    32  27  80 N7        30.06S WCI  26
EDEN PRAIRIE   CLOUDY    34  25  69 NE6       30.06R WCI  29
SOUTH ST PAUL  CLOUDY    35  27  72 N3        30.07R
LAKE ELMO      CLOUDY    32  28  86 N3        30.07R
$$
MNZ001>005-007-008-013>017-022>024-027-028-271100-
   Northwest Minnesota

CITY           SKY/WX    TMP DP  RH WIND       PRES   REMARKS
BEMIDJI        CLOUDY    24  23  98 SE3       30.03F FOG
HALLOCK        FOG       23  21  93 S10       30.02F VSB 1/4 WCI  12
ROSEAU         HAZE      23  18  80 S6        30.03F VSB 1/2 WCI  16
WARROAD        FOG       21  18  86 S5        30.04S VSB 1/2 WCI  15
THIEF RVR FALL CLOUDY    25  23  93 CALM      30.04S VSB 1/2
CROOKSTON      FOG       25  25 100 S6        30.06S VSB 1/2 WCI  18
FOSSTON        CLOUDY    25  23  93 CALM      30.04S FOG
DETROIT LAKES  FOG       27  27 100 CALM      30.04S VSB 1/2
MOORHEAD       CLOUDY    27  27 100 CALM      30.07S FOG
PARK RAPIDS    CLOUDY    27  24  89 CALM      30.03S
MAHNOMEN       CLOUDY    25  25  98 CALM      30.03S FOG
$$
MNZ006-009>011-018-025>026-271100-
   North Central Minnesota

CITY           SKY/WX    TMP DP  RH WIND       PRES   REMARKS
BAUDETTE       CLOUDY    23  21  92 S3        30.03S
FLAG ISLAND    CLOUDY    21  19  93 S6        30.03S WCI  14
INTL FALLS     CLOUDY    23  20  88 CALM      30.05R
WASKISH        CLOUDY    25  23  93 CALM      30.04F
BIG FORK       CLOUDY    27  23  86 CALM      30.05S
LONGVILLE      CLOUDY    28  25  86 CALM      30.04S
GRAND RAPIDS   CLOUDY    27  21  80 CALM      30.04R
CRANE LAKE     CLOUDY    21  21 100 CALM      30.07R
ORR            CLOUDY    23  19  86 CALM      30.02S
COOK           CLOUDY    25  21  86 CALM      30.05R
WALKER         CLOUDY    26  24  91 CALM      30.04R
$$
MNZ012-019>021-037-271100-
   Northeast Minnesota

CITY           SKY/WX    TMP DP  RH WIND       PRES   REMARKS
DULUTH         CLOUDY    26  21  81 N3        30.04R
ELY            CLOUDY    21  19  93 CALM      30.04R
HIBBING        CLOUDY    26  21  81 NW7       30.04R WCI  18
EVELETH        CLOUDY    27  23  86 CALM      30.06R
DULUTH HARBOR  CLOUDY    30  25  80 NE7       30.10R WCI  23
TWO HARBORS    CLOUDY    28  21  74 NE3       30.05R
SILVER BAY     CLOUDY    25  19  80 CALM      30.05R
GRAND MARAIS     N/A     23  19  85 N5        30.09R WCI  17
G MARAIS ARPRT CLOUDY    16  12  86 NW3       30.02R
$$
MNZ029>031-032-039>041-046>048-054>057-064-271100-
   West Central Minnesota

CITY           SKY/WX    TMP DP  RH WIND       PRES   REMARKS
FERGUS FALLS   CLOUDY    27  27 100 E3        30.08S FOG
WHEATON        PTCLDY    23  23 100 E3        30.08S FOG
MORRIS         CLOUDY    28  28 100 CALM      30.05S FOG
ALEXANDRIA     CLOUDY    28  26  92 N3        30.05R
ELBOW LAKE     CLOUDY    27  27  99 CALM      30.05S
WADENA         CLOUDY    27  25  93 CALM      30.04S
GLENWOOD       CLOUDY    28  27  93 CALM      30.06S
APPLETON       CLOUDY    30  28  93 CALM      30.06S
BENSON         CLOUDY    30  27  86 CALM      30.06F
ORTONVILLE     CLEAR     27  25  93 CALM      30.06S FOG
MADISON        FOG       30  30 100 CALM      30.07R VSB 1/4
WILLMAR        CLOUDY    30  28  93 N3        30.08R
$$
MNZ033>034-036-042>043-049>051-058-059-271100-
   Central Minnesota

CITY           SKY/WX    TMP DP  RH WIND       PRES   REMARKS
ST CLOUD       CLOUDY    32  25  75 NE5       30.06R WCI  27
SAUK CENTRE    CLOUDY    30  27  90 NE3       30.06R
PAYNESVILLE    CLOUDY    28  26  92 NW3       30.06S
AITKIN         CLOUDY    30  25  80 N3        30.04R
PINE RIVER     CLOUDY    28  25  86 N3        30.08R
BRAINERD       CLOUDY    30  25  81 NE3       30.05R
STAPLES        CLOUDY    28  25  86 CALM      30.05S
LONG PRAIRIE   CLOUDY    28  27  93 CALM      30.05S
LITTLE FALLS   CLOUDY    32  27  80 CALM      30.06R
LITCHFIELD     CLOUDY    34  30  86 NE5       30.07R WCI  30
BUFFALO        CLOUDY    33  27  79 N5        30.07S WCI  28
MAPLE LAKE     CLOUDY    33  30  87 CALM      30.07S
$$
MNZ037-044-045-052-053-271100-
   East Central Minnesota

CITY           SKY/WX    TMP DP  RH WIND       PRES   REMARKS
PRINCETON      CLOUDY    34  27  75 N3        30.07R
MORA           CLOUDY    32  25  74 CALM      30.07S
CAMBRIDGE      CLOUDY    34  25  69 CALM      30.05S
RUSH CITY      CLOUDY    31  25  78 NE3       30.07R
MOOSE LAKE     CLOUDY    30  25  80 N3        30.05R
HINCKLEY       CLOUDY    30  27  86 NE3       30.07R
CLOQUET        CLOUDY    27  21  80 NW5       30.06R WCI  21
MCGREGOR       CLOUDY    30  27  86 NW3       30.05S
$$
MNZ071>073-080-081-089-090-097-098-271100-
   Southwest Minnesota

CITY           SKY/WX    TMP DP  RH WIND       PRES   REMARKS
MONTEVIDEO     CLOUDY    28  28 100 CALM      30.08S
GRANITE FALLS  CLOUDY    30  28  93 CALM      30.08F
CANBY          FOG       31  31  99 CALM      30.07S VSB 1/2
MARSHALL       CLOUDY    28  27  93 N5        30.08S WCI  23
REDWOOD FALLS  CLOUDY    31  28  89 CALM      30.07R
OLIVIA         CLOUDY    30  28  93 CALM      30.06S
PIPESTONE      CLEAR     30  28  93 CALM      30.03S FOG
WINDOM         CLOUDY    30  30 100 CALM      30.06S
WORTHINGTON    CLOUDY    30  28  93 N9        30.05F WCI  22
JACKSON        CLOUDY    32  30  93 VRB5      30.06S WCI  27
TRACY          FOG       30  30  99 NW5       30.06S VSB 3/4 WCI  25
SLAYTON        FOG       31  30  98 CALM      30.05F VSB 3/4
$$
MNZ065>067-074>077-082>085-091>093-271100-
   South Central Minnesota

CITY           SKY/WX    TMP DP  RH WIND       PRES   REMARKS
MANKATO        CLOUDY    32  27  80 CALM      30.06R
NEW ULM        CLOUDY    30  28  93 NW3       30.08R
ST JAMES       CLEAR     30  28  93 W7        30.08R WCI  23
FAIRMONT       CLEAR     28  25  86 NW9       30.06R WCI  20
GLENCOE        CLOUDY    34  30  86 N6        30.06S WCI  29
FARIBAULT      CLOUDY    34  28  80 N5        30.06R WCI  30
OWATONNA       CLOUDY    34  30  86 N3        30.05R
WASECA         CLOUDY    32  30  93 N5        30.06S WCI  27
ALBERT LEA     CLOUDY    34  30  86 N5        30.04R WCI  30
$$
MNZ078>079-086>088-094>096-271100-
   Southeast Minnesota

CITY           SKY/WX    TMP DP  RH WIND       PRES   REMARKS
ROCHESTER      CLOUDY    33  28  81 N12       30.03R WCI  24
RED WING       CLOUDY    34  25  69 NE6       30.06R WCI  29
STANTON        CLOUDY    35  28  78 N5        30.05R WCI  31
DODGE CENTER   CLOUDY    34  30  86 N7        30.04R WCI  28
WINONA         CLOUDY    32  28  86 E5        30.07R WCI  27
AUSTIN         CLOUDY    34  28  80 N6        30.03S WCI  29
PRESTON        CLOUDY    32  29  90 N8        30.03R WCI  25
$$
ABBREVIATIONS USED IN REMARKS
   TC - TEMPERATURES IN CELSIUS
  WCI - WIND CHILL INDEX
   HX - HEAT INDEX
  VSB - VISIBILITY
$$


USA.gov is the U.S. government's official web portal to all federal, state and local government web resources and services.